This is the latest recevied weather packets stored in our database for station/object SR8WXL-13. If no packets are shown the sender has not sent any weather packets the latest 10 day(s).
| Time | Temp. | Humidity | Pressure | Rain* | Wind** | Luminosity | Snow |
|---|---|---|---|---|---|---|---|
| 1787614919 | 7.78° C | 96% | 1035.5 hPa | 0 mm | - | - | - |
| 1787614175 | 7.78° C | 96% | 1035.7 hPa | 0 mm | - | - | - |
| 1787613398 | 7.78° C | 96% | 1035.7 hPa | 0 mm | - | - | - |
| 1787612534 | 7.78° C | 95% | 1035.8 hPa | 0 mm | - | - | - |
| 1787611771 | 8.89° C | 96% | 1035.7 hPa | 0 mm | - | - | - |
| 1787610952 | 8.89° C | 96% | 1035.8 hPa | 0 mm | - | - | - |
| 1787610068 | 8.89° C | 95% | 1035.7 hPa | 0 mm | - | - | - |
| 1787609275 | 7.78° C | 95% | 1035.8 hPa | 0 mm | - | - | - |
| 1787608556 | 8.89° C | 95% | 1035.6 hPa | 0 mm | - | - | - |
| 1787607791 | 8.89° C | 95% | 1035.7 hPa | 0 mm | - | - | - |
| 1787607059 | 8.89° C | 94% | 1035.7 hPa | 0 mm | - | - | - |
| 1787606265 | 8.89° C | 94% | 1035.6 hPa | 0 mm | - | - | - |
| 1787605509 | 10° C | 94% | 1035.6 hPa | 0 mm | - | - | - |
| 1787604666 | 10° C | 94% | 1035.4 hPa | 0 mm | - | - | - |
| 1787603764 | 10° C | 94% | 1035.6 hPa | 0 mm | - | - | - |
| 1787602865 | 10° C | 94% | 1035.5 hPa | 0 mm | - | - | - |
| 1787602043 | 10° C | 93% | 1035.6 hPa | 0 mm | - | - | - |
| 1787601150 | 11.11° C | 92% | 1035.5 hPa | 0 mm | - | - | - |
| 1787600360 | 11.11° C | 92% | 1035.6 hPa | 0 mm | - | - | - |
| 1787599476 | 11.11° C | 91% | 1035.8 hPa | 0 mm | - | - | - |
| 1787598714 | 12.22° C | 89% | 1035.7 hPa | 0 mm | - | - | - |
| 1787597866 | 12.22° C | 90% | 1036 hPa | 0 mm | - | - | - |
| 1787597064 | 12.22° C | 89% | 1035.7 hPa | 0 mm | - | - | - |
| 1787596286 | 12.78° C | 86% | 1035.9 hPa | 0 mm | - | - | - |
| 1787595400 | 13.89° C | 86% | 1035.7 hPa | 0 mm | - | - | - |
* Rain latest hour (hover to see other rain measurements)
** Current wind speed in m/s (hover to see current wind gust speed)